[[{"header":{"parameterUnit":"m.s-1","parameterCategory":1,"la1":30.2991,"la2":30.254,"lo1":-89.0895,"lo2":-89.0444,"dy":0.0017,"dx":0.0017,"nx":28,"ny":28,"refTime":"2024-08-13T03:00:00:Z","depth":0,"parameterNumber":2,"parameterNumberName":"U-component_of_WINDS"},"data":[0,0,0,0,0,0,0,0,0,0,0,0,0,0,0,0,0,0,0,0,0,0,0,0,0,0,0,0,0,0,0,0,0,0,0,0,0,0,0,0,0,0,0,0,0,0,0,0,0,0,0,0,0,0,0,0,0,0,4.0918,4.0919,0,4.1038,4.1039,4.1041,4.0952,4.0948,4.0944,4.0941,4.1066,4.1072,4.1079,0,0,0,0,0,0,0,0,0,0,0,0,0,4.0612,4.0618,4.0918,4.0919,4.0921,4.1038,4.104,4.1041,4.0953,4.0948,4.0943,4.0939,4.1063,4.1071,4.108,0,0,0,0,0,0,0,0,0,0,0,0,0,4.074,4.062,4.0917,4.0891,4.089,4.1038,4.104,4.1042,4.0954,4.0948,4.0942,4.0937,4.1061,4.1071,4.1081,4.1262,0,0,4.1113,4.1117,0,0,0,0,0,0,0,0,4.0733,4.0751,4.0893,4.0893,4.0892,4.0974,4.0977,4.1116,4.0955,4.093,4.0941,4.0934,4.104,4.1052,4.1087,4.1268,4.1273,4.1114,4.112,4.1125,4.1128,0,0,0,0,0,0,0,4.0724,4.0745,4.0965,4.0895,4.0895,4.0873,4.0885,4.1003,4.1016,4.0931,4.0925,4.0941,4.1038,4.1077,4.1089,4.1275,4.1113,4.1123,4.1129,4.1133,4.1609,4.1615,0,0,0,0,0,0,4.0717,4.0739,4.0961,4.0969,4.0796,4.0883,4.0896,4.0954,4.1015,4.1018,4.0945,4.0936,4.1062,4.1077,4.1094,4.1308,4.1124,4.1134,4.114,4.1603,4.161,4.1617,0,0,0,0,0,0,4.0711,4.0738,4.0957,4.0852,4.0878,4.0895,4.096,4.0959,4.0998,4.1025,4.1027,4.0983,4.1058,4.1079,4.122,4.1311,4.1139,4.1148,4.1595,4.1605,4.1614,4.1741,0,0,0,0,0,0,4.0703,4.0736,4.0806,4.0854,4.0884,4.1082,4.0965,4.0966,4.1016,4.1005,4.1061,4.1064,4.1055,4.1205,4.1231,4.1323,4.1157,4.1587,4.16,4.1611,4.1728,4.1753,4.1775,0,0,0,0,0,4.0692,4.0837,4.0809,4.0837,4.0971,4.1087,4.1104,4.1091,4.1024,4.1093,4.111,4.1063,4.1298,4.1221,4.1248,4.1345,4.1581,4.1596,4.161,4.1718,4.1748,4.1774,0,0,0,0,0,0,4.08,4.0843,4.0813,4.0978,4.103,4.1072,4.1159,4.1124,4.1196,4.1182,4.1163,4.1176,4.1324,4.1349,4.1262,4.1523,4.1429,4.1449,4.1501,4.153,4.1553,4.1544,4.1165,0,0,0,0,0,4.0842,4.0933,4.0966,4.1109,4.1136,4.1144,4.1194,4.1179,4.1231,4.1253,4.128,4.1334,4.1419,4.1476,4.1557,4.1731,4.1742,4.1811,4.1835,4.1853,4.1872,4.1964,4.1995,4.1664,4.1664,4.1664,0,0,4.0932,4.0967,4.1026,4.1131,4.1169,4.1263,4.1163,4.1267,4.1336,4.1269,4.1404,4.1426,4.1484,4.1643,4.1714,4.1668,4.1965,4.1872,4.1887,4.1895,4.1982,4.2014,4.2041,4.1674,4.1672,4.1671,0,0,4.1143,4.1179,4.1301,4.1341,4.1399,4.1403,4.1432,4.1481,4.1492,4.1627,4.1578,4.166,4.1809,4.1852,4.1893,4.2119,4.2077,4.2146,4.2267,4.2357,4.2383,4.2406,4.2486,4.2515,4.2163,4.2164,4.2164,0,4.1247,4.1387,4.1368,4.1476,4.1523,4.1465,4.1588,4.1628,4.1711,4.1745,4.1691,4.1875,4.191,4.2077,4.2132,4.2168,4.22,4.2139,4.2381,4.2404,4.2425,4.2501,4.2531,4.2172,4.2171,4.217,4.2169,0,4.1511,4.1609,4.17,4.178,4.1838,4.1953,4.1951,4.2012,4.1992,4.2001,4.2138,4.2178,4.2265,4.2304,4.2285,4.2468,4.2437,4.2383,4.2288,4.2465,4.2535,4.2564,4.2183,4.218,4.2178,4.2176,0,0,4.1794,4.1861,4.1895,4.1929,4.1989,4.2064,4.2176,4.226,4.2312,4.2371,4.2463,4.2589,4.2539,4.2586,4.2572,4.2652,4.2826,4.2587,4.2588,4.2629,4.3029,4.3069,4.3103,4.2799,4.2805,4.2809,4.3024,0,4.2007,4.2201,4.2187,4.2371,4.246,4.2406,4.2503,4.255,4.2561,4.2639,4.2651,4.2741,4.2668,4.2696,4.2772,4.2789,4.2906,4.2773,4.2885,4.2889,4.2871,4.314,4.3183,4.3383,4.3051,4.3056,4.3059,0,4.2282,4.2349,4.2541,4.2585,4.2622,4.271,4.2785,4.286,4.2912,4.2914,4.2966,4.2938,4.3051,4.2953,4.3107,4.3017,4.3062,4.3077,4.3084,4.3094,4.2985,4.3156,4.3447,4.3477,4.3103,4.3099,4.3096,0,4.2468,4.2606,4.2738,4.277,4.2825,4.2888,4.2914,4.296,4.3011,4.3077,4.3109,4.3188,4.3231,4.3292,4.3286,4.3216,4.3442,4.3344,4.3447,4.3447,4.3497,4.3494,4.3799,4.3528,4.3527,4.3526,4.3526,0,4.2707,4.2827,4.2822,4.2903,4.3035,4.3017,4.3148,4.3167,4.3209,4.3292,4.3251,4.333,4.3317,4.3397,4.3393,4.352,4.354,4.3545,4.3543,4.3549,4.3548,4.3577,4.3563,4.3534,4.3533,4.3531,4.353,0,4.2937,4.2939,4.3079,4.312,4.3133,4.3228,4.3263,4.3339,4.3347,4.3453,4.3477,4.3489,4.3581,4.358,4.3685,4.3682,4.3838,4.382,4.382,4.3816,4.3918,4.3909,4.4253,4.4296,4.3997,4.4,4.4003,0,4.3089,4.318,4.323,4.3282,4.3312,4.3398,4.3449,4.3435,4.349,4.3555,4.3624,4.3711,4.378,4.3929,4.3947,4.4026,4.4009,4.4124,4.4021,4.4024,4.401,4.4004,4.4012,4.4144,4.4148,4.415,4.4153,0,4.3359,4.3355,4.343,4.3506,4.3568,4.3627,4.3681,4.3727,4.3719,4.3783,4.3875,4.3928,4.4034,4.4121,4.4198,4.4224,4.4188,4.4185,4.4213,4.4219,4.4215,4.4218,4.3874,4.4177,4.4175,4.4173,4.4171,4.417,4.3554,4.3631,4.3678,4.3763,4.3802,4.3853,4.3926,4.3942,4.4019,4.4103,4.4091,4.4194,4.4242,4.434,4.4374,4.4454,4.4413,4.4454,4.4464,4.4474,4.4485,4.4203,4.4468,4.4467,4.4467,4.4466,4.4465,0,4.3821,4.3847,4.3926,4.4002,4.4069,4.4027,4.4085,4.4143,4.4234,4.4282,4.435,4.4456,4.4539,4.4563,4.4644,4.4703,4.4688,4.4725,4.472,4.4727,4.4517,4.4484,4.4736,4.4736,4.4736,4.4736,4.4735,4.4735,4.3967,4.4094,4.4096,4.4242,4.4268,4.4368,4.4404,4.4451,4.4489,4.4608,4.4677,4.4692,4.473,4.4813,4.4887,4.4892,4.4924,4.4967,4.4965,4.4769,4.4742,4.4716,4.4685,4.4974,4.4975,4.5168,4.517,4.5171]},{"header":{"parameterUnit":"m.s-1","parameterCategory":1,"la1":30.2991,"la2":30.254,"lo1":-89.0895,"lo2":-89.0444,"dy":0.0017,"dx":0.0017,"nx":28,"ny":28,"refTime":"2024-08-13T03:00:00:Z","depth":0,"parameterNumber":3,"parameterNumberName":"V-component_of_WINDS"},"data":[0,0,0,0,0,0,0,0,0,0,0,0,0,0,0,0,0,0,0,0,0,0,0,0,0,0,0,0,0,0,0,0,0,0,0,0,0,0,0,0,0,0,0,0,0,0,0,0,0,0,0,0,0,0,0,0,0,0,0.4232,0.4232,0,0.4168,0.4168,0.4167,0.4106,0.4105,0.4104,0.4103,0.4036,0.4035,0.4034,0,0,0,0,0,0,0,0,0,0,0,0,0,0.43,0.4299,0.4233,0.4232,0.4231,0.4168,0.4168,0.4167,0.4106,0.4105,0.4104,0.4103,0.4037,0.4035,0.4034,0,0,0,0,0,0,0,0,0,0,0,0,0,0.4257,0.4298,0.4233,0.4193,0.4189,0.4169,0.4167,0.4166,0.4106,0.4105,0.4104,0.4103,0.4037,0.4035,0.4034,0.4047,0,0,0.4029,0.4028,0,0,0,0,0,0,0,0,0.4259,0.4254,0.42,0.4196,0.4191,0.4144,0.4166,0.4126,0.4106,0.4137,0.4103,0.4102,0.4073,0.4068,0.4059,0.4044,0.4041,0.4029,0.4028,0.4027,0.4027,0,0,0,0,0,0,0,0.4262,0.4257,0.4207,0.4199,0.4194,0.4178,0.417,0.4159,0.4112,0.4135,0.413,0.4123,0.407,0.406,0.4057,0.404,0.4029,0.4027,0.4026,0.4026,0.4031,0.4032,0,0,0,0,0,0,0.4271,0.4259,0.4209,0.4205,0.4223,0.4177,0.4169,0.416,0.4112,0.4104,0.4124,0.4121,0.4064,0.4059,0.4054,0.4065,0.4027,0.4026,0.4025,0.403,0.4031,0.4033,0,0,0,0,0,0,0.4273,0.4268,0.4212,0.4231,0.4223,0.4177,0.4168,0.4159,0.415,0.4105,0.4096,0.4123,0.4063,0.4056,0.4049,0.4062,0.4025,0.4023,0.4029,0.403,0.4032,0.4089,0,0,0,0,0,0,0.4275,0.4269,0.4274,0.4232,0.4222,0.4209,0.4169,0.4159,0.4147,0.4142,0.4101,0.4093,0.4061,0.4052,0.4047,0.4059,0.4022,0.4027,0.4029,0.4031,0.4086,0.4093,0.4099,0,0,0,0,0,0.4278,0.4293,0.4275,0.4269,0.4228,0.421,0.4204,0.4167,0.4149,0.4153,0.4124,0.4094,0.4062,0.4051,0.4046,0.4058,0.4026,0.4029,0.4031,0.4083,0.4092,0.4099,0,0,0,0,0,0,0.4338,0.4286,0.4266,0.4267,0.4243,0.4199,0.4204,0.4177,0.4158,0.4154,0.4108,0.41,0.4097,0.4077,0.4066,0.4067,0.404,0.4041,0.4081,0.4089,0.4095,0.41,0.4021,0,0,0,0,0,0.4351,0.4341,0.4297,0.4302,0.4291,0.425,0.4241,0.4215,0.4188,0.4177,0.4147,0.4122,0.4105,0.4096,0.4078,0.4083,0.4072,0.4088,0.4094,0.4099,0.4101,0.4101,0.4107,0.4041,0.4041,0.4041,0,0,0.4379,0.4349,0.4346,0.4314,0.4292,0.4282,0.4242,0.4233,0.4225,0.4175,0.4167,0.4144,0.4112,0.4111,0.4108,0.4093,0.4117,0.4103,0.4107,0.4106,0.4104,0.411,0.4116,0.4042,0.4042,0.4042,0,0,0.4424,0.4401,0.4403,0.4382,0.4349,0.4321,0.4322,0.4281,0.4264,0.4255,0.4217,0.4206,0.4179,0.4158,0.4144,0.4179,0.4151,0.4174,0.4207,0.4207,0.4212,0.4217,0.4229,0.4233,0.4176,0.4177,0.4177,0,0.4462,0.4446,0.4407,0.44,0.4387,0.4341,0.4342,0.4323,0.4287,0.4278,0.4261,0.4226,0.4201,0.4194,0.4202,0.4192,0.419,0.4179,0.4215,0.4219,0.4222,0.4233,0.4238,0.418,0.4179,0.4179,0.4179,0,0.4494,0.4484,0.4489,0.4455,0.4442,0.4439,0.4398,0.439,0.4364,0.4337,0.4328,0.4296,0.4271,0.4267,0.4242,0.4255,0.4247,0.4223,0.4195,0.4232,0.4242,0.4246,0.4184,0.4183,0.4182,0.4181,0,0,0.4576,0.452,0.4522,0.4506,0.4466,0.4457,0.4451,0.4427,0.442,0.4396,0.4389,0.4367,0.4344,0.4328,0.43,0.43,0.4329,0.4276,0.4274,0.4287,0.434,0.4358,0.4364,0.431,0.431,0.4311,0.4342,0,0.4614,0.4603,0.4566,0.4565,0.4554,0.451,0.4505,0.448,0.4454,0.444,0.4412,0.4397,0.4369,0.4358,0.4356,0.4326,0.4339,0.4323,0.4302,0.4302,0.4312,0.4369,0.4388,0.4419,0.4346,0.4347,0.4347,0,0.4658,0.4637,0.4635,0.4594,0.4588,0.4585,0.4559,0.4546,0.4516,0.4497,0.4479,0.4447,0.4437,0.4411,0.4396,0.4386,0.4375,0.4359,0.4359,0.4356,0.4327,0.4367,0.4429,0.4434,0.4352,0.4352,0.4352,0,0.4717,0.4688,0.4683,0.467,0.4623,0.4621,0.4601,0.457,0.4557,0.4534,0.4525,0.4501,0.4488,0.4469,0.4432,0.4416,0.4421,0.4391,0.4404,0.4406,0.4408,0.4408,0.4469,0.4401,0.4401,0.4401,0.4401,0,0.4764,0.4764,0.4709,0.4706,0.4704,0.4662,0.4661,0.4637,0.4609,0.4599,0.4559,0.4551,0.4502,0.4487,0.4457,0.4449,0.4444,0.4428,0.442,0.4431,0.4433,0.4424,0.442,0.4402,0.4402,0.4402,0.4402,0,0.483,0.4793,0.4785,0.474,0.4729,0.473,0.4692,0.4686,0.4658,0.4646,0.4641,0.4596,0.4577,0.4537,0.4507,0.4487,0.4486,0.4472,0.4496,0.4491,0.4507,0.4506,0.4563,0.4568,0.4498,0.4499,0.4499,0,0.4863,0.4862,0.4817,0.4808,0.479,0.4776,0.4763,0.472,0.4708,0.4672,0.4671,0.4648,0.4628,0.4599,0.4564,0.454,0.4525,0.4547,0.4521,0.4532,0.4525,0.4525,0.4524,0.4553,0.4554,0.4554,0.4555,0,0.4924,0.4905,0.4888,0.4864,0.4849,0.4828,0.4805,0.48,0.4751,0.4739,0.4719,0.4704,0.4672,0.465,0.4621,0.4599,0.4569,0.4563,0.4565,0.4577,0.4591,0.4583,0.4512,0.4562,0.4561,0.4561,0.4561,0.456,0.4973,0.497,0.4938,0.492,0.4898,0.4877,0.4869,0.484,0.4823,0.4795,0.477,0.4752,0.472,0.4677,0.4657,0.4641,0.4627,0.4629,0.463,0.4631,0.4636,0.4593,0.4636,0.4636,0.4635,0.4635,0.4635,0,0.5032,0.5009,0.4992,0.4961,0.4947,0.4919,0.4892,0.4881,0.4866,0.4839,0.482,0.4796,0.4774,0.4736,0.471,0.4705,0.469,0.47,0.47,0.4695,0.4651,0.4652,0.4712,0.4712,0.4712,0.4712,0.4712,0.4712,0.5061,0.5054,0.5031,0.5012,0.4988,0.4971,0.4958,0.4937,0.4915,0.4891,0.4872,0.4848,0.4816,0.4787,0.4765,0.4755,0.4747,0.4761,0.4746,0.4705,0.4698,0.4691,0.4692,0.476,0.476,0.4791,0.4791,0.4791]}]]